Location: Bridgewater
(44.3670°N, 64.5170°W)
Time: 14:59:10
(UTC-03:00)

Amateur Radio Satellites - All Passes

Search period start: 31 May 2016 14:29
Search period end: 01 June 2016 14:29
Location: Bridgewater, 44.3670°N, 64.5170°W

Satellite Date Start Highest point End Downlink Frequencies (MHz)
Time Altitude Azimuth
Oscar 19 31 May 14:30:51 14:35:44 41° 262° (W) 14:40:40 437.125/150
SWISSCUBE 31 May 14:36:26 14:39:52 19° 92° (E) 14:43:17 437.505
AO-85 31 May 14:41:12 14:45:53 70° 239° (WSW) 14:50:08 145.980
ITUPSAT 1 31 May 14:44:48 14:48:25 21° 93° (E) 14:51:59 437.325
DX 1 31 May 14:49:29 14:51:26 13° 300° (WNW) 14:53:21 434.975-435.025
SPROUT 31 May 14:57:56 15:00:47 18° 296° (WNW) 15:03:37 437.525
BEESAT 31 May 15:05:00 15:09:18 32° 97° (E) 15:13:36 436.000
TISAT 1 31 May 15:05:16 15:09:16 45° 289° (WNW) 15:13:14 437.305
JAS-2 31 May 15:14:38 15:19:23 18° 276° (W) 15:24:18 435.910
ITAMSAT 1 31 May 15:21:18 15:26:29 81° 257° (WSW) 15:31:42 435.822/435.867
Gurwin Techsat 1B 31 May 15:28:10 15:32:49 31° 265° (W) 15:37:29 435.225
AO-7 31 May 15:28:37 15:36:44 62° 65° (ENE) 15:44:55 29.400- 29.500
Cosmos 2491 31 May 15:55:20 16:04:06 77° 265° (W) 16:12:46 435.465 / 435.565
YUBILEINY 31 May 15:55:33 16:03:41 47° 88° (E) 16:11:51 435.215
SWISSCUBE 31 May 16:13:18 16:17:56 50° 289° (WNW) 16:22:34 437.505
Cosmos 2504 31 May 16:14:17 16:17:54 14° 74° (ENE) 16:21:34 435.465 / 435.565
ITUPSAT 1 31 May 16:21:52 16:26:29 47° 290° (WNW) 16:31:05 437.325
RS-15 31 May 16:23:02 16:32:55 37° 106° (ESE) 16:43:16 29.354- 29.394
KKS-1 31 May 16:28:17 16:32:09 29° 96° (E) 16:35:58 437.445
BEESAT 31 May 16:42:52 16:47:01 30° 294° (WNW) 16:51:10 436.000
STARS 31 May 16:52:14 16:55:56 26° 95° (E) 16:59:36 437.465
HORYU 2 31 May 16:53:57 16:58:16 57° 72° (ENE) 17:02:36 437.375
ITAMSAT 1 31 May 17:06:34 17:06:44 10° 273° (W) 17:06:55 435.822/435.867
MOZHAYETS 4 31 May 17:14:40 17:19:19 70° 102° (ESE) 17:23:56
NOAA 18 31 May 17:18:06 17:22:10 22° 60° (ENE) 17:26:15 137.9125
BRITE-PL 31 May 17:18:47 17:22:51 21° 62° (ENE) 17:26:53 437.365/2234.400
AO-7 31 May 17:22:46 17:29:57 32° 264° (W) 17:37:13 29.400- 29.500
GOMX 1 31 May 17:24:19 17:25:31 11° 57° (ENE) 17:26:43 467.674
LilacSat-2 31 May 17:24:49 17:25:05 10° 61° (ENE) 17:25:20 437.200
CUTE-I 31 May 17:29:17 17:33:11 21° 61° (ENE) 17:37:08 437.470
PCSat 31 May 17:34:11 17:39:07 33° 47° (NE) 17:44:00 145.827
O/OREOS (USA 219) 31 May 17:52:05 17:55:14 18° 52° (NE) 17:58:23 437.305
YUBILEINY 31 May 17:52:31 18:00:35 41° 289° (WNW) 18:08:43 435.215
Cosmos 2491 31 May 17:54:44 17:59:21 16° 286° (WNW) 18:03:59 435.465 / 435.565
NOAA 15 31 May 18:01:59 18:07:10 56° 71° (ENE) 18:12:23 137.62
Cosmos 2504 31 May 18:02:30 18:09:47 81° 96° (E) 18:17:35 435.465 / 435.565
KKS-1 31 May 18:04:50 18:08:40 29° 293° (WNW) 18:12:29 437.445
HO-68 31 May 18:07:24 18:09:31 11° 45° (NE) 18:11:37 435.675
BEESAT 2 31 May 18:21:03 18:22:33 12° 33° (NNE) 18:24:04 435.950
Cubesat XI-IV 31 May 18:22:44 18:27:55 58° 71° (ENE) 18:33:10 437.490
STARS 31 May 18:28:26 18:32:18 31° 292° (WNW) 18:36:07 437.465
HORYU 2 31 May 18:32:42 18:35:11 15° 269° (W) 18:37:41 437.375
RS-15 31 May 18:33:04 18:44:29 72° 310° (NW) 18:56:37 29.354- 29.394
BEESAT 3 31 May 18:45:52 18:49:12 25° 44° (NE) 18:52:30 437.485
CUBESAT XI-V 31 May 18:51:58 18:56:44 84° 105° (ESE) 19:01:25 437.345
MOZHAYETS 4 31 May 18:53:22 18:55:55 15° 299° (WNW) 18:58:27
LilacSat-2 31 May 18:55:03 18:58:50 71° 259° (W) 19:02:37 437.200
BRITE-PL 31 May 18:55:06 19:00:46 69° 259° (W) 19:06:26 437.365/2234.400
NOAA 18 31 May 18:57:01 19:02:24 59° 258° (WSW) 19:07:48 137.9125
GOMX 1 31 May 18:57:17 19:02:42 68° 74° (ENE) 19:07:56 467.674
CUTE-I 31 May 19:07:36 19:12:49 58° 259° (W) 19:18:05 437.470
AUBIESAT-1 31 May 19:12:32 19:15:04 17° 61° (ENE) 19:17:31 437.475
PCSat 31 May 19:17:31 19:22:37 43° 247° (WSW) 19:27:41 145.827
M-CUBED/EXP-1 PRIME 31 May 19:22:23 19:25:42 26° 64° (ENE) 19:28:50 437.505
CINEMA 3 31 May 19:24:01 19:27:13 19° 65° (ENE) 19:30:21 145.822/145.860
DOVE 4 31 May 19:24:05 19:29:08 60° 73° (ENE) 19:33:58 437.250
O/OREOS (USA 219) 31 May 19:30:37 19:35:00 55° 251° (WSW) 19:39:22 437.305
SEEDS 31 May 19:36:44 19:39:18 16° 63° (ENE) 19:41:54 437.485
CANX-2 31 May 19:41:59 19:45:33 27° 68° (ENE) 19:49:08 2200.000
NOAA 15 31 May 19:43:22 19:47:17 21° 268° (W) 19:51:13 137.62
ISS 31 May 19:46:23 19:48:26 16° 133° (SE) 19:50:28 145.825
HO-68 31 May 19:48:47 19:55:37 51° 66° (ENE) 20:02:29 435.675
BEESAT 2 31 May 19:57:11 20:01:10 68° 54° (NE) 20:05:08 435.950
Cosmos 2504 31 May 19:58:53 20:04:16 21° 299° (WNW) 20:09:53 435.465 / 435.565
Cubesat XI-IV 31 May 20:04:37 20:08:24 20° 269° (W) 20:12:11 437.490
UWE-3 31 May 20:04:59 20:05:42 10° 60° (ENE) 20:06:26 435.000/436.395/437.385
CUTE 1.7 + AOD 2 31 May 20:07:49 20:11:49 44° 72° (ENE) 20:15:51 437.475
AAUSAT CUBESAT 2 31 May 20:11:46 20:14:55 21° 66° (ENE) 20:18:05 437.432
COMPASS 1 31 May 20:13:20 20:16:49 27° 68° (ENE) 20:20:21 437.405
STRAND 1 31 May 20:20:45 20:25:47 51° 100° (E) 20:30:47 437.568
BEESAT 3 31 May 20:23:19 20:26:59 37° 243° (WSW) 20:30:37 437.485
PHONESAT 2.4 31 May 20:30:13 20:31:43 13° 153° (SSE) 20:33:14 2401.200-2431.200
CUBESAT XI-V 31 May 20:31:21 20:33:24 13° 301° (WNW) 20:35:28 437.345
Oscar 11 31 May 20:31:34 20:34:11 16° 63° (ENE) 20:36:47 145.826/435.025
AIST 1 31 May 20:35:26 20:38:54 23° 88° (E) 20:42:25
GOMX 1 31 May 20:37:35 20:41:10 18° 270° (W) 20:44:40 467.674
CUSAT 1 31 May 20:45:30 20:48:41 13° 50° (NE) 20:51:40 437.405
AUBIESAT-1 31 May 20:45:35 20:49:22 41° 255° (WSW) 20:52:54 437.475
RS-15 31 May 20:49:20 20:59:35 33° 340° (NNW) 21:10:15 29.354- 29.394
ZACube-1 31 May 20:53:59 20:57:15 23° 66° (ENE) 21:00:30 437.345
M-CUBED/EXP-1 PRIME 31 May 20:56:48 21:00:13 26° 258° (WSW) 21:03:27 437.505
CINEMA 3 31 May 20:59:34 21:04:04 48° 261° (W) 21:08:23 145.822/145.860
DOVE 4 31 May 21:03:43 21:07:08 18° 269° (W) 21:10:27 437.250
AIST 2 31 May 21:06:36 21:10:13 28° 45° (NE) 21:13:49 435.215
SEEDS 31 May 21:10:32 21:14:36 51° 261° (W) 21:18:44 437.485
CANX-2 31 May 21:17:42 21:21:20 28° 265° (W) 21:25:01 2200.000
CUBEBUG 2 31 May 21:18:23 21:22:42 88° 71° (ENE) 21:26:56 437.445
DANDE 31 May 21:19:32 21:23:57 15° 51° (NE) 21:28:11 436.750
ISS 31 May 21:21:14 21:24:30 76° 331° (NNW) 21:27:46 145.825
FUNcube-1 31 May 21:28:37 21:32:38 48° 72° (ENE) 21:36:38 145.935
BEESAT 2 31 May 21:36:50 21:38:29 12° 251° (WSW) 21:40:06 435.950
HO-68 31 May 21:37:14 21:43:33 34° 264° (W) 21:49:56 435.675
UWE-3 31 May 21:37:18 21:41:33 84° 254° (WSW) 21:45:45 435.000/436.395/437.385
DELFI C3 31 May 21:38:27 21:42:03 34° 70° (ENE) 21:45:42 145.870
PRISM 31 May 21:41:45 21:45:55 63° 102° (ESE) 21:50:01 437.425
CUTE 1.7 + AOD 2 31 May 21:45:06 21:47:54 17° 269° (W) 21:50:43 437.475
GONETS M04 31 May 21:46:17 21:54:46 56° 90° (E) 22:03:12
AAUSAT CUBESAT 2 31 May 21:46:23 21:50:11 35° 263° (W) 21:54:02 437.432
COMPASS 1 31 May 21:48:46 21:52:20 27° 265° (W) 21:55:56 437.405
HUMSAT D 31 May 21:57:49 22:01:14 26° 68° (ENE) 22:04:41 437.325/437.525
STRAND 1 31 May 22:00:39 22:04:36 23° 298° (WNW) 22:08:34 437.568
PHONESAT 2.4 31 May 22:05:03 22:07:55 32° 169° (S) 22:10:47 2401.200-2431.200
Oscar 11 31 May 22:05:40 22:09:53 55° 260° (W) 22:14:08 145.826/435.025
AIST 1 31 May 22:12:21 22:16:20 33° 285° (WNW) 22:20:20
Cosmos 2499 31 May 22:23:27 22:30:34 55° 91° (E) 22:38:17 435.465 / 435.565
CUSAT 1 31 May 22:25:20 22:32:49 59° 74° (ENE) 22:38:52 437.405
ZACube-1 31 May 22:29:35 22:33:23 33° 263° (W) 22:37:10 437.345
UNISAT 6 31 May 22:30:24 22:32:14 12° 90° (E) 22:34:05 437.425
TIGRISAT 31 May 22:36:03 22:38:12 13° 90° (E) 22:40:23 435.000
CUBEBUG 1 31 May 22:37:31 22:39:06 12° 59° (ENE) 22:40:40 437.445
50 SAT 31 May 22:43:55 22:44:48 11° 62° (ENE) 22:45:41 437.505
AIST 2 31 May 22:44:57 22:48:46 35° 243° (WSW) 22:52:32 435.215
ESTCUBE 1 31 May 22:52:15 22:55:49 23° 65° (ENE) 22:59:24 437.505/2401.250
VELOX 1 31 May 22:55:20 22:58:16 18° 62° (ENE) 23:01:12 145.980
ISS 31 May 22:58:33 23:01:20 25° 350° (N) 23:04:06 145.825
DANDE 31 May 23:00:29 23:08:48 60° 74° (ENE) 23:16:03 436.750
RS-15 31 May 23:06:38 23:16:58 31° 15° (NNE) 23:27:28 29.354- 29.394
FUNcube-1 31 May 23:06:43 23:09:10 15° 269° (W) 23:11:37 145.935
ANTELSAT 31 May 23:09:46 23:13:40 32° 97° (E) 23:17:37 437.575/2403.000
DELFI C3 31 May 23:14:05 23:17:01 20° 267° (W) 23:19:59 145.870
UKube-1 31 May 23:14:16 23:17:14 18° 63° (ENE) 23:20:13 .
PRISM 31 May 23:18:37 23:20:44 14° 299° (WNW) 23:22:49 437.425
SO-50 31 May 23:29:46 23:34:05 32° 115° (ESE) 23:38:25 436.795
AISAT 31 May 23:30:35 23:34:44 39° 69° (ENE) 23:38:54 437.250
HUMSAT D 31 May 23:33:22 23:36:49 27° 265° (W) 23:40:18 437.325/437.525
PHONESAT 2.4 31 May 23:41:24 23:44:21 38° 186° (S) 23:47:17 2401.200-2431.200
GONETS M04 31 May 23:44:04 23:51:57 36° 291° (WNW) 23:59:50
DUCHIFAT 1 31 May 23:46:10 23:48:02 13° 90° (E) 23:49:55 145.980
UNISAT 6 01 Jun 00:05:05 00:09:22 66° 286° (WNW) 00:13:44 437.425
DX 1 01 Jun 00:08:09 00:12:32 78° 73° (ENE) 00:16:56 434.975-435.025
CUSAT 1 01 Jun 00:08:17 00:14:16 27° 277° (W) 00:19:22 437.405
CUBEBUG 1 01 Jun 00:10:16 00:14:43 84° 257° (WSW) 00:19:11 437.445
TIGRISAT 01 Jun 00:11:02 00:15:16 60° 287° (WNW) 00:19:35 435.000
50 SAT 01 Jun 00:14:25 00:18:01 62° 259° (WSW) 00:21:41 437.505
SPROUT 01 Jun 00:15:58 00:20:02 44° 71° (ENE) 00:24:07 437.525
Cosmos 2499 01 Jun 00:17:39 00:24:08 31° 293° (WNW) 00:31:05 435.465 / 435.565
TISAT 1 01 Jun 00:24:13 00:26:54 17° 63° (ENE) 00:29:35 437.305
QB50P1 01 Jun 00:28:07 00:32:05 40° 98° (E) 00:36:03 145.935-145.965
ESTCUBE 1 01 Jun 00:28:11 00:32:24 39° 262° (W) 00:36:41 437.505/2401.250
POPSAT HIP 1 01 Jun 00:28:11 00:32:09 39° 98° (E) 00:36:05 437.405
VELOX 1 01 Jun 00:29:58 00:34:20 53° 260° (W) 00:38:43 145.980
QB50P2 01 Jun 00:32:04 00:36:09 47° 99° (E) 00:40:12 145.880/145.840
POLYITAN 1 01 Jun 00:34:33 00:38:38 48° 99° (E) 00:42:42 437.675
ISS 01 Jun 00:35:42 00:38:29 25° 10° (N) 00:41:14 145.825
JAS-2 01 Jun 00:36:56 00:40:44 15° 82° (E) 00:44:19 435.910
NANOSAT C BR1 01 Jun 00:43:41 00:47:50 58° 101° (E) 00:51:57 145.865
DANDE 01 Jun 00:44:00 00:51:09 33° 275° (W) 00:57:32 436.750
ANTELSAT 01 Jun 00:46:43 00:50:17 26° 293° (WNW) 00:53:53 437.575/2403.000
UKube-1 01 Jun 00:48:45 00:52:56 47° 260° (W) 00:57:09 .
AISAT 01 Jun 01:07:53 01:11:20 22° 266° (W) 01:14:49 437.250
SO-50 01 Jun 01:09:53 01:14:30 40° 313° (NW) 01:19:07 436.795
BUGSAT 1 01 Jun 01:18:15 01:22:16 61° 102° (ESE) 01:26:13 437.445
PHONESAT 2.4 01 Jun 01:18:23 01:20:39 18° 202° (SSW) 01:22:55 2401.200-2431.200
DUCHIFAT 1 01 Jun 01:20:01 01:24:08 59° 287° (WNW) 01:28:14 145.980
RS-15 01 Jun 01:20:30 01:32:40 61° 46° (NE) 01:44:50 29.354- 29.394
SWISSCUBE 01 Jun 01:44:18 01:48:17 27° 65° (ENE) 01:52:17 437.505
DX 1 01 Jun 01:48:21 01:49:15 11° 271° (W) 01:50:11 434.975-435.025
ITUPSAT 1 01 Jun 01:52:59 01:57:04 29° 66° (ENE) 02:01:10 437.325
SPROUT 01 Jun 01:53:15 01:56:12 18° 268° (W) 01:59:09 437.525
TISAT 1 01 Jun 01:58:05 02:02:11 50° 260° (W) 02:06:18 437.305
YUBILEINY 01 Jun 02:03:35 02:10:36 26° 63° (ENE) 02:17:36 435.215
Gurwin Techsat 1B 01 Jun 02:04:15 02:06:26 12° 88° (E) 02:08:36 435.225
QB50P1 01 Jun 02:04:34 02:07:36 20° 295° (WNW) 02:10:38 145.935-145.965
POPSAT HIP 1 01 Jun 02:04:38 02:07:41 20° 295° (WNW) 02:10:44 437.405
QB50P2 01 Jun 02:08:50 02:11:36 17° 297° (WNW) 02:14:22 145.880/145.840
POLYITAN 1 01 Jun 02:11:21 02:14:05 17° 297° (WNW) 02:16:48 437.675
ISS 01 Jun 02:12:02 02:15:19 74° 31° (NNE) 02:18:33 145.825
BEESAT 01 Jun 02:12:47 02:17:18 45° 70° (ENE) 02:21:50 436.000
JAS-2 01 Jun 02:19:39 02:27:03 83° 105° (ESE) 02:33:34 435.910
NANOSAT C BR1 01 Jun 02:20:48 02:23:07 15° 298° (WNW) 02:25:25 145.865
Oscar 19 01 Jun 02:40:20 02:45:27 61° 102° (ESE) 02:50:31 437.125/150
SO-50 01 Jun 02:54:55 02:56:19 11° 335° (NNW) 02:57:43 436.795
BUGSAT 1 01 Jun 02:55:17 02:57:09 13° 299° (WNW) 02:59:00 437.445
Cosmos 2491 01 Jun 03:03:44 03:10:37 27° 80° (E) 03:17:30 435.465 / 435.565
SWISSCUBE 01 Jun 03:21:34 03:25:56 36° 263° (W) 03:30:20 437.505
KKS-1 01 Jun 03:27:44 03:31:43 33° 68° (ENE) 03:35:43 437.445
AO-7 01 Jun 03:30:12 03:35:05 16° 88° (E) 03:39:56 29.400- 29.500
ITUPSAT 1 01 Jun 03:30:31 03:34:48 33° 263° (W) 03:39:09 437.325
ITAMSAT 1 01 Jun 03:32:45 03:37:24 31° 96° (E) 03:42:01 435.822/435.867
RS-15 01 Jun 03:33:29 03:44:59 49° 250° (WSW) 03:56:25 29.354- 29.394
Gurwin Techsat 1B 01 Jun 03:41:44 03:47:05 88° 291° (WNW) 03:52:24 435.225
ISS 01 Jun 03:49:17 03:51:23 16° 226° (SW) 03:53:29 145.825
STARS 01 Jun 03:50:21 03:54:09 29° 67° (ENE) 03:57:58 437.465
BEESAT 01 Jun 03:51:42 03:55:18 21° 267° (W) 03:58:55 436.000
Cosmos 2504 01 Jun 03:52:07 03:59:47 36° 69° (ENE) 04:07:41 435.465 / 435.565
YUBILEINY 01 Jun 03:59:36 04:08:21 77° 266° (W) 04:17:07 435.215
JAS-2 01 Jun 04:05:45 04:11:06 22° 305° (NW) 04:16:04 435.910
MOZHAYETS 4 01 Jun 04:17:51 04:22:24 79° 75° (ENE) 04:27:00
Oscar 19 01 Jun 04:20:42 04:24:18 20° 299° (WNW) 04:27:53 437.125/150
CUBESAT XI-V 01 Jun 04:22:31 04:24:30 13° 59° (ENE) 04:26:29 437.345
AO-85 01 Jun 04:56:11 05:00:55 31° 114° (ESE) 05:05:35 145.980
Cosmos 2491 01 Jun 04:57:49 05:06:37 72° 281° (W) 05:15:28 435.465 / 435.565
KKS-1 01 Jun 05:04:35 05:08:19 26° 265° (W) 05:12:05 437.445
ITAMSAT 1 01 Jun 05:12:07 05:16:52 36° 293° (WNW) 05:21:37 435.822/435.867
AO-7 01 Jun 05:20:42 05:29:07 79° 107° (ESE) 05:37:30 29.400- 29.500
Gurwin Techsat 1B 01 Jun 05:23:37 05:26:15 14° 303° (WNW) 05:28:53 435.225
STARS 01 Jun 05:26:41 05:30:29 28° 264° (W) 05:34:17 437.465
Cosmos 2504 01 Jun 05:45:14 05:53:30 57° 269° (W) 06:02:06 435.465 / 435.565
CUBESAT XI-V 01 Jun 05:56:29 06:01:10 85° 257° (WSW) 06:05:56 437.345
MOZHAYETS 4 01 Jun 05:58:50 06:00:09 11° 272° (W) 06:01:29
YUBILEINY 01 Jun 05:58:59 06:03:35 16° 286° (WNW) 06:08:13 435.215
STRAND 1 01 Jun 06:02:39 06:04:52 13° 56° (ENE) 06:07:07 437.568
NOAA 15 01 Jun 06:16:32 06:20:06 18° 91° (E) 06:23:37 137.62
HORYU 2 01 Jun 06:19:27 06:23:54 89° 305° (NW) 06:28:22 437.375
SO-50 01 Jun 06:20:31 06:22:10 12° 26° (NNE) 06:23:48 436.795
LilacSat-2 01 Jun 06:29:05 06:30:03 11° 90° (E) 06:31:01 437.200
AO-85 01 Jun 06:36:02 06:41:18 47° 311° (NW) 06:46:24 145.980
Cubesat XI-IV 01 Jun 06:39:02 06:42:59 20° 92° (E) 06:46:55 437.490
BRITE-PL 01 Jun 06:59:24 07:03:58 35° 95° (E) 07:08:10 437.365/2234.400
GOMX 1 01 Jun 06:59:31 07:02:11 15° 89° (E) 07:04:46 467.674
Cosmos 2491 01 Jun 07:00:10 07:05:18 16° 304° (NW) 07:10:27 435.465 / 435.565
AO-7 01 Jun 07:14:24 07:21:06 28° 308° (NW) 07:27:48 29.400- 29.500
NOAA 18 01 Jun 07:17:14 07:22:35 51° 101° (E) 07:27:55 137.9125
CUTE-I 01 Jun 07:22:50 07:28:03 49° 100° (E) 07:33:14 437.470
DOVE 4 01 Jun 07:23:49 07:25:23 12° 88° (E) 07:26:55 437.250
STRAND 1 01 Jun 07:38:09 07:43:16 86° 74° (ENE) 07:48:24 437.568
Cosmos 2504 01 Jun 07:43:33 07:45:03 11° 289° (WNW) 07:46:33 435.465 / 435.565
GONETS M04 01 Jun 07:54:41 08:02:06 30° 66° (ENE) 08:09:27
NOAA 15 01 Jun 07:55:04 08:00:19 63° 288° (WNW) 08:05:31 137.62
HORYU 2 01 Jun 07:58:38 07:59:46 11° 302° (WNW) 08:00:54 437.375
SO-50 01 Jun 07:59:21 08:03:54 45° 48° (NE) 08:08:18 436.795
LilacSat-2 01 Jun 08:01:00 08:04:44 57° 285° (WNW) 08:08:26 437.200
O/OREOS (USA 219) 01 Jun 08:07:34 08:09:49 14° 98° (E) 08:12:04 437.305
Cosmos 2499 01 Jun 08:12:00 08:18:51 25° 63° (ENE) 08:25:49 435.465 / 435.565
AIST 1 01 Jun 08:17:07 08:21:28 71° 80° (E) 08:25:45
Cubesat XI-IV 01 Jun 08:18:10 08:23:25 57° 289° (WNW) 08:28:40 437.490
PCSat 01 Jun 08:18:57 08:22:42 19° 106° (ESE) 08:26:28 145.827
AO-85 01 Jun 08:20:28 08:23:02 13° 332° (NNW) 08:25:33 145.980
PRISM 01 Jun 08:32:25 08:36:29 55° 73° (ENE) 08:40:36 437.425
M-CUBED/EXP-1 PRIME 01 Jun 08:35:48 08:36:36 11° 97° (E) 08:37:25 437.505
GOMX 1 01 Jun 08:36:15 08:40:43 52° 288° (WNW) 08:44:54 467.674
BRITE-PL 01 Jun 08:38:07 08:42:18 27° 295° (WNW) 08:46:12 437.365/2234.400
CINEMA 3 01 Jun 08:52:39 08:56:22 31° 96° (E) 09:00:06 145.822/145.860
SEEDS 01 Jun 08:53:09 08:56:34 23° 94° (E) 08:59:58 437.485
NOAA 18 01 Jun 08:58:32 09:02:56 25° 298° (WNW) 09:07:20 137.9125
DOVE 4 01 Jun 08:59:21 09:03:37 63° 286° (WNW) 09:07:44 437.250
CANX-2 01 Jun 09:00:21 09:04:27 42° 98° (E) 09:08:33 2200.000
HO-68 01 Jun 09:01:56 09:08:47 45° 99° (E) 09:15:36 435.675
CUTE-I 01 Jun 09:03:30 09:07:47 25° 297° (WNW) 09:12:04 437.470
CUBEBUG 2 01 Jun 09:08:34 09:11:03 15° 91° (E) 09:13:34 437.445
STRAND 1 01 Jun 09:21:10 09:23:06 12° 272° (W) 09:25:04 437.568
UWE-3 01 Jun 09:26:04 09:28:48 17° 92° (E) 09:31:32 435.000/436.395/437.385
CUTE 1.7 + AOD 2 01 Jun 09:26:28 09:30:47 73° 101° (ESE) 09:35:04 437.475
AAUSAT CUBESAT 2 01 Jun 09:26:51 09:30:35 30° 96° (E) 09:34:17 437.432
COMPASS 1 01 Jun 09:29:17 09:33:17 40° 98° (E) 09:37:15 437.405
UNISAT 6 01 Jun 09:31:06 09:33:24 14° 62° (ENE) 09:35:42 437.425
TIGRISAT 01 Jun 09:36:37 09:39:07 15° 63° (ENE) 09:41:36 435.000
SO-50 01 Jun 09:40:21 09:44:08 25° 247° (WSW) 09:47:50 436.795
O/OREOS (USA 219) 01 Jun 09:44:07 09:48:39 65° 295° (WNW) 09:53:11 437.305
GONETS M04 01 Jun 09:51:00 09:59:35 66° 267° (W) 10:08:08
Oscar 11 01 Jun 09:51:35 09:55:07 24° 94° (E) 09:58:37 145.826/435.025
CUSAT 1 01 Jun 09:52:44 09:53:34 10° 72° (ENE) 09:54:23 437.405
AUBIESAT-1 01 Jun 09:56:49 10:00:08 79° 289° (WNW) 10:03:29 437.475
AIST 1 01 Jun 09:57:28 09:58:24 11° 278° (W) 09:59:20
PCSat 01 Jun 10:00:10 10:05:33 66° 304° (NW) 10:10:59 145.827
Cosmos 2499 01 Jun 10:04:14 10:12:57 82° 264° (W) 10:21:51 435.465 / 435.565
M-CUBED/EXP-1 PRIME 01 Jun 10:08:20 10:11:27 42° 293° (WNW) 10:14:35 437.505
PRISM 01 Jun 10:10:00 10:12:09 14° 269° (W) 10:14:18 437.425
ANTELSAT 01 Jun 10:10:15 10:14:08 34° 69° (ENE) 10:18:00 437.575/2403.000
ZACube-1 01 Jun 10:15:36 10:19:32 37° 98° (E) 10:23:32 437.345
BEESAT 3 01 Jun 10:15:45 10:18:50 22° 114° (ESE) 10:21:57 437.485
SEEDS 01 Jun 10:28:29 10:32:19 34° 291° (WNW) 10:36:10 437.485
CINEMA 3 01 Jun 10:30:06 10:33:24 23° 293° (WNW) 10:36:42 145.822/145.860
CANX-2 01 Jun 10:36:56 10:40:01 20° 295° (WNW) 10:43:07 2200.000
DUCHIFAT 1 01 Jun 10:40:07 10:42:04 13° 61° (ENE) 10:44:00 145.980
CUBEBUG 2 01 Jun 10:43:55 10:47:59 49° 287° (WNW) 10:52:05 437.445
DELFI C3 01 Jun 10:48:51 10:52:45 45° 99° (E) 10:56:37 145.870
HO-68 01 Jun 10:49:52 10:56:24 39° 298° (WNW) 11:02:55 435.675
FUNcube-1 01 Jun 10:50:36 10:54:50 85° 102° (ESE) 10:59:08 145.935
JAS-2 01 Jun 10:52:45 10:55:25 12° 46° (NE) 10:58:05 435.910
UWE-3 01 Jun 11:01:28 11:05:30 46° 288° (WNW) 11:09:35 435.000/436.395/437.385
AAUSAT CUBESAT 2 01 Jun 11:02:29 11:05:58 25° 293° (WNW) 11:09:25 437.432
CUTE 1.7 + AOD 2 01 Jun 11:04:13 11:06:03 13° 299° (WNW) 11:07:53 437.475
UNISAT 6 01 Jun 11:05:23 11:09:39 61° 259° (W) 11:13:55 437.425
COMPASS 1 01 Jun 11:05:29 11:08:35 20° 295° (WNW) 11:11:40 437.405
TIGRISAT 01 Jun 11:11:09 11:15:24 56° 259° (W) 11:19:36 435.000
HUMSAT D 01 Jun 11:14:16 11:18:13 39° 98° (E) 11:22:11 437.325/437.525
QB50P1 01 Jun 11:21:59 11:25:53 37° 70° (ENE) 11:29:47 145.935-145.965
POPSAT HIP 1 01 Jun 11:22:07 11:26:00 37° 70° (ENE) 11:29:54 437.405
QB50P2 01 Jun 11:26:04 11:30:04 43° 71° (ENE) 11:34:05 145.880/145.840
CUSAT 1 01 Jun 11:27:00 11:33:43 55° 92° (E) 11:41:29 437.405
Oscar 11 01 Jun 11:27:22 11:31:18 34° 291° (WNW) 11:35:14 145.826/435.025
BEESAT 2 01 Jun 11:27:51 11:31:48 74° 123° (ESE) 11:35:48 435.950
POLYITAN 1 01 Jun 11:28:33 11:32:34 44° 71° (ENE) 11:36:35 437.675
NANOSAT C BR1 01 Jun 11:37:07 11:41:13 52° 72° (ENE) 11:45:19 145.865
PCSat 01 Jun 11:46:52 11:50:02 15° 326° (NW) 11:53:11 145.827
ANTELSAT 01 Jun 11:47:30 11:50:56 23° 266° (W) 11:54:20 437.575/2403.000
AO-85 01 Jun 11:48:00 11:49:00 11° 22° (NNE) 11:49:59 145.980
GONETS M04 01 Jun 11:51:30 11:54:34 12° 289° (WNW) 11:57:38
ZACube-1 01 Jun 11:52:25 11:55:38 21° 294° (WNW) 11:58:52 437.345
BEESAT 3 01 Jun 11:52:39 11:56:20 37° 312° (NW) 12:00:03 437.485
DX 1 01 Jun 11:56:55 11:58:27 12° 89° (E) 12:00:00 434.975-435.025
CUBEBUG 1 01 Jun 11:58:31 12:01:12 16° 91° (E) 12:03:53 437.445
Cosmos 2499 01 Jun 11:59:26 12:04:45 18° 284° (WNW) 12:10:10 435.465 / 435.565
BUGSAT 1 01 Jun 12:09:11 12:13:14 52° 72° (ENE) 12:17:16 437.445
DANDE 01 Jun 12:09:16 12:15:15 55° 92° (E) 12:22:47 436.750
DUCHIFAT 1 01 Jun 12:13:03 12:17:14 67° 258° (WSW) 12:21:26 145.980
ESTCUBE 1 01 Jun 12:18:46 12:23:01 38° 97° (E) 12:27:14 437.505/2401.250
VELOX 1 01 Jun 12:18:50 12:22:29 25° 95° (E) 12:26:06 145.980
Oscar 19 01 Jun 12:22:12 12:25:12 16° 58° (ENE) 12:28:12 437.125/150
DELFI C3 01 Jun 12:24:41 12:27:16 17° 296° (WNW) 12:29:51 145.870
FUNcube-1 01 Jun 12:29:40 12:30:27 10° 300° (WNW) 12:31:15 145.935
JAS-2 01 Jun 12:31:21 12:38:35 49° 66° (ENE) 12:46:04 435.910
UKube-1 01 Jun 12:34:34 12:38:05 24° 95° (E) 12:41:35 .
AIST 2 01 Jun 12:43:48 12:47:24 30° 115° (ESE) 12:51:02 435.215
HUMSAT D 01 Jun 12:50:32 12:53:36 20° 295° (WNW) 12:56:40 437.325/437.525
AISAT 01 Jun 12:55:08 12:59:32 62° 101° (ESE) 13:03:52 437.250
QB50P1 01 Jun 12:58:37 13:01:47 20° 267° (W) 13:04:57 145.935-145.965
POPSAT HIP 1 01 Jun 12:58:43 13:01:55 21° 267° (W) 13:05:06 437.405
QB50P2 01 Jun 13:03:13 13:06:05 18° 268° (W) 13:08:57 145.880/145.840
POLYITAN 1 01 Jun 13:05:48 13:08:36 17° 268° (W) 13:11:24 437.675
BEESAT 2 01 Jun 13:07:36 13:10:08 16° 322° (NW) 13:12:40 435.950
CUSAT 1 01 Jun 13:09:47 13:16:14 35° 294° (WNW) 13:23:26 437.405
Cosmos 2491 01 Jun 13:11:42 13:16:01 14° 53° (NE) 13:20:19 435.465 / 435.565
NANOSAT C BR1 01 Jun 13:14:52 13:17:16 15° 269° (W) 13:19:39 145.865
50 SAT 01 Jun 13:15:39 13:19:21 61° 285° (WNW) 13:23:02 437.505
Gurwin Techsat 1B 01 Jun 13:25:59 13:30:14 25° 63° (ENE) 13:34:30 435.225
AO-85 01 Jun 13:26:30 13:30:58 37° 46° (NE) 13:35:02 145.980
DX 1 01 Jun 13:30:48 13:35:08 70° 286° (WNW) 13:39:26 434.975-435.025
CUBEBUG 1 01 Jun 13:33:34 13:37:49 51° 288° (WNW) 13:42:00 437.445
SPROUT 01 Jun 13:35:51 13:40:07 69° 102° (ESE) 13:44:20 437.525
TISAT 1 01 Jun 13:40:53 13:44:05 21° 94° (E) 13:47:16 437.305
BUGSAT 1 01 Jun 13:46:36 13:48:55 14° 269° (W) 13:51:13 437.445
DANDE 01 Jun 13:52:55 13:58:37 32° 297° (WNW) 14:05:27 436.750
VELOX 1 01 Jun 13:55:01 13:59:00 33° 292° (WNW) 14:02:57 145.980
ESTCUBE 1 01 Jun 13:55:59 13:59:38 24° 295° (WNW) 14:03:16 437.505/2401.250
Oscar 19 01 Jun 13:58:40 14:03:52 80° 257° (WSW) 14:09:06 437.125/150
UKube-1 01 Jun 14:10:17 14:14:10 33° 292° (WNW) 14:18:03 .
